Weather History for Missoula, MT

Change the Weather History Date:

Thursday, August 8, 2013

  Actual Average Record
Temperature  
Mean Temperature 72 °F 70 °F  
Max Temperature 90 °F 87 °F 100 °F (1971)
Min Temperature 53 °F 52 °F 36 °F (1893)
Degree Days  
Heating Degree Days 0 1  
Month to date heating degree days 8 8  
Since 1 June heating degree days 149 206  
Since 1 July heating degree days 8 46  
Cooling Degree Days 7 5  
Month to date cooling degree days 24 46  
Year to date cooling degree days 325 240  
Since 1 June cooling degree days 321 234  
Growing Degree Days 22 (Base 50)    
Moisture  
Dew Point 42 °F    
Average Humidity 41    
Maximum Humidity 66    
Minimum Humidity 15    
Precipitation  
Precipitation 0.00 in 0.04 in 0.42 in (1915)
Month to date precipitation 0.30 0.27  
Year to date precipitation 6.20 9.11  
Snow  
Snow 0.00 in - - ()
Month to date snowfall 0.0  
Year to date snowfall 27.4  
Since 1 July snowfall T  
Snow Depth 0.00 in    
Sea Level Pressure  
Sea Level Pressure 29.94 in    
Wind  
Wind Speed 5 mph (NE)    
Max Wind Speed 15 mph    
Max Gust Speed 22 mph    
Visibility 10 miles    
Events      
T = Trace of Precipitation, MM = Missing Value Source: NWS Daily Summary

Daily Weather History Graph

Daily Weather History Graph

Search for Another Location

Airport:

Trip Planner

Search our weather history database for the weather conditions in past years. The results will help you decide how hot, cold, wet, or windy it might be!

Date:

Astronomy

Aug. 08, 2013 Rise Set
Actual Time 6:25 AM MDT 8:57 PM MDT
Civil Twilight 5:50 AM MDT 9:31 PM MDT
Nautical Twilight 5:07 AM MDT 10:14 PM MDT
Astronomical Twilight 4:17 AM MDT 11:04 PM MDT
Moon 8:27 AM MDT (8/8) 9:25 PM MDT (8/8)
Length of Visible Light 15h 41m
Length of Day
14h 32m
Waxing Crescent, 3% of the Moon is Illuminated
Aug 8
Waxing Crescent
Aug 14
First Quarter
Aug 20
Full
Aug 28
Last Quarter
Sep 5
New

Hourly Weather History & Observations

Time (MDT) Temp. Dew Point Humidity Pressure Visibility Wind Dir Wind Speed Gust Speed Precip Events Conditions
12:53 AM 64.9 °F 46.0 °F 50% 29.92 in 10.0 mi SE 3.5 mph - N/A   Clear
1:53 AM 59.0 °F 44.1 °F 58% 29.93 in 10.0 mi Calm Calm - N/A   Clear
2:53 AM 60.1 °F 44.1 °F 55% 29.93 in 10.0 mi Calm Calm - N/A   Clear
3:53 AM 57.9 °F 43.0 °F 58% 29.94 in 10.0 mi Calm Calm - N/A   Clear
4:53 AM 57.9 °F 44.1 °F 60% 29.94 in 10.0 mi ESE 5.8 mph - N/A   Clear
5:53 AM 53.1 °F 43.0 °F 69% 29.97 in 10.0 mi Calm Calm - N/A   Clear
6:53 AM 55.0 °F 43.0 °F 64% 29.99 in 10.0 mi Calm Calm - N/A   Clear
7:53 AM 59.0 °F 44.1 °F 58% 30.00 in 10.0 mi ESE 4.6 mph - N/A   Clear
8:53 AM 62.1 °F 43.0 °F 50% 30.01 in 10.0 mi Calm Calm - N/A   Clear
9:53 AM 66.9 °F 45.0 °F 45% 30.00 in 10.0 mi Calm Calm - N/A   Clear
10:53 AM 73.0 °F 42.1 °F 33% 29.99 in 10.0 mi Calm Calm - N/A   Clear
11:53 AM 79.0 °F 44.1 °F 29% 29.96 in 10.0 mi South 3.5 mph - N/A   Clear
12:53 PM 82.9 °F 44.1 °F 25% 29.94 in 10.0 mi Calm Calm - N/A   Clear
1:53 PM 86.0 °F 39.9 °F 20% 29.92 in 10.0 mi SW 3.5 mph - N/A   Clear
2:53 PM 87.1 °F 37.9 °F 18% 29.90 in 10.0 mi Variable 6.9 mph - N/A   Clear
3:53 PM 90.0 °F 39.9 °F 17% 29.89 in 10.0 mi NNW 11.5 mph - N/A   Clear
4:53 PM 89.1 °F 37.9 °F 16% 29.88 in 10.0 mi NW 11.5 mph - N/A   Clear
5:53 PM 88.0 °F 33.1 °F 14% 29.88 in 10.0 mi North 12.7 mph - N/A   Clear
6:53 PM 86.0 °F 36.0 °F 17% 29.88 in 10.0 mi North 9.2 mph - N/A   Clear
7:53 PM 84.0 °F 37.0 °F 19% 29.87 in 10.0 mi North 6.9 mph 16.1 mph N/A   Clear
8:53 PM 82.0 °F 37.0 °F 20% 29.89 in 10.0 mi NNE 11.5 mph - N/A   Clear
9:53 PM 79.0 °F 48.9 °F 35% 29.92 in 10.0 mi East 8.1 mph - N/A   Clear
10:53 PM 77.0 °F 50.0 °F 39% 29.94 in 10.0 mi East 5.8 mph - N/A   Scattered Clouds
11:53 PM 75.0 °F 50.0 °F 41% 29.95 in 10.0 mi Variable 4.6 mph - N/A   Clear